EW9290 Weather Reports


Display with metric or nautical units.
time (UTC)temp
F
wind
direction
speed
MPH
gust
MPH
rain 1hr
in
rain 24hr
in
rain mn
in
humidity
%
barometer
mb
20260508193544 54 196 4.0 5.0 0.00 0.00 0.00 80 1008.7
20260508193041 54 267 5.0 6.0 0.00 0.00 0.00 78 1008.7
20260508192538 55 217 5.0 6.0 0.00 0.00 0.00 77 1008.8
20260508192035 55 229 2.0 2.0 0.00 0.00 0.00 78 1008.7
20260508191531 55 248 2.0 2.0 0.00 0.00 0.00 78 1008.5
20260508191028 55 226 4.0 5.0 0.00 0.00 0.00 78 1008.5
20260508190526 55 254 2.0 3.0 0.00 0.00 0.00 77 1008.6
20260508190022 56 221 5.0 6.0 0.00 0.00 0.00 75 1008.6
20260508185519 56 230 3.0 3.0 0.00 0.00 0.00 76 1008.8
20260508185017 56 242 4.0 5.0 0.00 0.00 0.00 77 1008.7
20260508184514 55 261 3.0 3.0 0.00 0.00 0.00 79 1008.8
20260508184011 55 250 7.0 9.0 0.00 0.00 0.00 77 1008.9
20260508183507 54 206 4.0 5.0 0.00 0.00 0.00 79 1009.2
20260508183003 54 232 3.0 3.0 0.00 0.00 0.00 78 1009.1
20260508182500 54 214 6.0 8.0 0.00 0.00 0.00 78 1008.9
20260508181955 54 188 5.0 6.0 0.00 0.00 0.00 78 1009.3
20260508181452 55 189 2.0 3.0 0.00 0.00 0.00 77 1009.0
20260508180949 54 232 2.0 2.0 0.00 0.00 0.00 80 1009.2
20260508180446 53 215 4.0 5.0 0.00 0.00 0.00 82 1009.3
20260508175942 53 232 0.0 0.0 0.00 0.00 0.00 83 1009.4
20260508175438 53 239 7.0 9.0 0.00 0.00 0.00 82 1009.4
20260508174937 53 238 5.0 7.0 0.00 0.00 0.00 83 1009.4
20260508174434 53 216 3.0 3.0 0.00 0.00 0.00 83 1009.6
20260508173930 53 219 3.0 3.0 0.00 0.00 0.00 82 1009.5
20260508173428 53 224 2.0 2.0 0.00 0.00 0.00 82 1009.7
20260508172923 53 210 4.0 5.0 0.00 0.00 0.00 80 1009.7
20260508172421 53 233 3.0 5.0 0.00 0.00 0.00 80 1009.6
20260508171917 53 249 3.0 3.0 0.00 0.00 0.00 79 1009.8
20260508171414 54 224 2.0 2.0 0.00 0.00 0.00 79 1009.8
20260508170910 54 230 5.0 6.0 0.00 0.00 0.00 76 1009.9
20260508170408 54 263 3.0 5.0 0.00 0.00 0.00 76 1009.9
20260508165904 54 230 5.0 7.0 0.00 0.00 0.00 76 1009.9
20260508165402 55 248 7.0 9.0 0.00 0.00 0.00 74 1009.8
20260508164858 55 226 3.0 5.0 0.00 0.00 0.00 74 1010.0
20260508164355 55 255 5.0 7.0 0.00 0.00 0.00 72 1009.7
20260508163852 55 221 2.0 2.0 0.00 0.00 0.00 73 1009.8
20260508163350 55 296 3.0 5.0 0.00 0.00 0.00 73 1009.9
20260508162845 55 273 1.0 1.0 0.00 0.00 0.00 73 1009.6
20260508162343 56 257 4.0 6.0 0.00 0.00 0.00 71 1009.7
20260508161840 56 228 3.0 3.0 0.00 0.00 0.00 70 1009.9
20260508161337 56 318 3.0 5.0 0.00 0.00 0.00 70 1009.9
20260508160834 56 297 6.0 7.0 0.00 0.00 0.00 70 1009.9
20260508160333 56 269 3.0 3.0 0.00 0.00 0.00 69 1009.7
20260508155829 57 223 2.0 3.0 0.00 0.00 0.00 68 1009.8
20260508155326 56 254 3.0 3.0 0.00 0.00 0.00 71 1009.9
20260508154823 56 271 1.0 1.0 0.00 0.00 0.00 71 1010.0
20260508154321 56 235 2.0 2.0 0.00 0.00 0.00 70 1010.1
20260508153817 56 257 8.0 10.0 0.00 0.00 0.00 69 1010.0
20260508153314 56 286 6.0 7.0 0.00 0.00 0.00 70 1009.8
20260508152810 56 245 3.0 3.0 0.00 0.00 0.00 69 1009.8
20260508152307 55 280 7.0 8.0 0.00 0.00 0.00 70 1009.9
20260508151803 56 257 2.0 2.0 0.00 0.00 0.00 70 1009.6
20260508151300 57 272 6.0 8.0 0.00 0.00 0.00 69 1009.9
20260508150756 57 284 3.0 3.0 0.00 0.00 0.00 68 1009.7
20260508150253 57 283 1.0 1.0 0.00 0.00 0.00 69 1009.8
20260508145749 55 221 2.0 3.0 0.00 0.00 0.00 70 1009.7
20260508145246 55 275 4.0 5.0 0.00 0.00 0.00 70 1009.9
20260508144743 54 241 3.0 6.0 0.00 0.00 0.00 71 1009.8
20260508144241 54 234 2.0 2.0 0.00 0.00 0.00 72 1009.9
20260508143738 54 278 7.0 8.0 0.00 0.00 0.00 70 1009.8
20260508143235 54 291 4.0 5.0 0.00 0.00 0.00 71 1009.7
20260508142731 54 293 6.0 9.0 0.00 0.00 0.00 71 1009.7
20260508142228 54 282 5.0 6.0 0.00 0.00 0.00 71 1010.0
20260508141725 55 281 3.0 3.0 0.00 0.00 0.00 72 1009.9
20260508141222 54 204 6.0 7.0 0.00 0.00 0.00 71 1009.9
20260508140719 53 297 5.0 7.0 0.00 0.00 0.00 71 1009.9
20260508140216 53 307 4.0 6.0 0.00 0.00 0.00 71 1009.9
20260508135712 53 225 3.0 3.0 0.00 0.00 0.00 71 1010.0
20260508135208 54 250 6.0 7.0 0.00 0.00 0.00 71 1010.0
20260508134704 53 253 2.0 2.0 0.00 0.00 0.00 72 1010.1
20260508134201 52 254 4.0 6.0 0.00 0.00 0.00 73 1010.3
20260508133658 53 291 3.0 5.0 0.00 0.00 0.00 72 1010.2
20260508133155 52 292 3.0 3.0 0.00 0.00 0.00 74 1010.3
20260508132653 51 266 0.0 1.0 0.00 0.00 0.00 74 1010.2
20260508132150 51 237 2.0 2.0 0.00 0.00 0.00 73 1010.4
20260508131645 51 257 7.0 8.0 0.00 0.00 0.00 72 1010.3
20260508131142 51 221 3.0 3.0 0.00 0.00 0.00 74 1010.2
20260508130639 51 280 3.0 3.0 0.00 0.00 0.00 74 1010.2
20260508130136 51 215 8.0 10.0 0.00 0.00 0.00 74 1010.5
20260508125631 51 249 3.0 5.0 0.00 0.00 0.00 74 1010.4
20260508125129 50 250 4.0 5.0 0.00 0.00 0.00 73 1010.3
20260508124627 50 252 3.0 5.0 0.00 0.00 0.00 74 1010.4
20260508124124 50 242 3.0 3.0 0.00 0.00 0.00 73 1010.5
20260508123622 50 223 5.0 6.0 0.00 0.00 0.00 73 1010.3
20260508123119 50 225 3.0 3.0 0.00 0.00 0.00 73 1010.2
20260508122615 50 218 3.0 5.0 0.00 0.00 0.00 73 1010.1
20260508122112 49 257 3.0 3.0 0.00 0.00 0.00 75 1010.1
20260508121611 49 231 2.0 5.0 0.00 0.00 0.00 78 1010.3
20260508121108 48 244 2.0 2.0 0.00 0.00 0.00 80 1010.2
20260508120605 48 236 2.0 2.0 0.00 0.00 0.00 82 1010.0
20260508120104 47 211 1.0 1.0 0.00 0.00 0.00 83 1009.9
20260508115601 47 223 0.0 1.0 0.00 0.00 0.00 83 1009.9
20260508115057 47 207 3.0 3.0 0.00 0.00 0.00 83 1009.8
20260508114554 47 209 2.0 2.0 0.00 0.00 0.00 84 1009.8
20260508114050 47 209 3.0 3.0 0.00 0.00 0.00 85 1009.6
20260508113548 47 207 2.0 2.0 0.00 0.00 0.00 85 1009.8
20260508113046 47 213 1.0 2.0 0.00 0.00 0.00 85 1009.9
20260508112542 47 227 0.0 0.0 0.00 0.00 0.00 84 1009.7
20260508112039 46 210 1.0 1.0 0.00 0.00 0.00 84 1009.6
20260508111536 46 219 0.0 1.0 0.00 0.00 0.00 84 1009.4
20260508111033 47 219 1.0 1.0 0.00 0.00 0.00 83 1009.6
20260508110531 47 238 1.0 1.0 0.00 0.00 0.00 82 1009.8
20260508110026 47 254 1.0 2.0 0.00 0.00 0.00 82 1009.7
20260508105521 47 288 0.0 0.0 0.00 0.00 0.00 82 1009.7
20260508105019 47 248 1.0 1.0 0.00 0.00 0.00 81 1009.6
20260508104517 47 237 1.0 2.0 0.00 0.00 0.00 82 1009.6
20260508104013 47 240 1.0 1.0 0.00 0.00 0.00 82 1009.4
20260508103510 47 207 3.0 3.0 0.00 0.00 0.00 81 1009.5
20260508103008 47 261 2.0 3.0 0.00 0.00 0.00 81 1009.6
20260508102505 47 242 5.0 6.0 0.00 0.00 0.00 81 1009.5
20260508102003 47 224 4.0 5.0 0.00 0.00 0.00 82 1009.8
20260508101500 46 239 2.0 2.0 0.00 0.00 0.00 83 1009.9
20260508100956 46 253 3.0 3.0 0.00 0.00 0.00 84 1009.6
20260508100455 46 228 2.0 2.0 0.00 0.00 0.00 84 1009.5
20260508095951 46 232 3.0 3.0 0.00 0.00 0.00 84 1009.5
20260508095449 46 217 2.0 2.0 0.00 0.00 0.00 84 1009.5
20260508094946 46 236 2.0 2.0 0.00 0.00 0.00 83 1009.6
20260508094442 46 280 3.0 6.0 0.00 0.00 0.00 84 1009.2
20260508093939 46 260 7.0 8.0 0.00 0.00 0.00 85 1009.2
20260508093436 46 225 2.0 2.0 0.00 0.00 0.00 84 1009.5
20260508092934 45 244 3.0 3.0 0.00 0.00 0.00 82 1009.5
20260508092432 45 197 0.0 0.0 0.00 0.00 0.00 83 1009.6
20260508091930 45 219 2.0 3.0 0.00 0.00 0.00 83 1009.7
20260508091426 45 228 3.0 3.0 0.00 0.00 0.00 82 1009.7
20260508090924 45 218 1.0 2.0 0.00 0.00 0.00 82 1009.6
20260508090423 45 230 1.0 1.0 0.00 0.00 0.00 82 1010.0
20260508085918 45 244 1.0 1.0 0.00 0.00 0.00 82 1010.0
20260508085415 45 261 2.0 2.0 0.00 0.00 0.00 82 1009.8
20260508084911 45 210 3.0 3.0 0.00 0.00 0.00 82 1009.9
20260508084408 45 242 2.0 2.0 0.00 0.00 0.00 82 1009.8
20260508083906 45 228 3.0 6.0 0.00 0.00 0.00 83 1009.9
20260508083403 45 235 4.0 5.0 0.00 0.00 0.00 83 1009.8
20260508082902 45 242 0.0 1.0 0.00 0.00 0.00 84 1009.8
20260508082400 45 209 1.0 2.0 0.00 0.00 0.00 84 1009.8
20260508081858 45 202 3.0 3.0 0.00 0.00 0.00 84 1009.9
20260508081354 45 227 2.0 2.0 0.00 0.00 0.00 84 1009.7
20260508080851 44 195 2.0 2.0 0.00 0.00 0.00 85 1009.9
20260508080349 44 207 0.0 0.0 0.00 0.00 0.00 85 1010.0
20260508075845 45 209 0.0 0.0 0.00 0.00 0.00 85 1010.2
20260508075343 45 229 1.0 1.0 0.00 0.00 0.00 84 1010.0
20260508074840 45 209 1.0 1.0 0.00 0.00 0.00 84 1010.0
20260508074337 45 203 2.0 2.0 0.00 0.00 0.00 83 1009.9
20260508073834 46 212 3.0 5.0 0.00 0.00 0.00 83 1010.2
20260508073332 46 248 2.0 2.0 0.00 0.00 0.00 83 1010.1
20260508072828 46 232 1.0 2.0 0.00 0.00 0.00 82 1009.9
20260508072325 46 240 5.0 7.0 0.00 0.00 0.00 82 1010.1
20260508071822 46 237 2.0 3.0 0.00 0.00 0.00 82 1010.2
20260508071321 46 238 2.0 2.0 0.00 0.00 0.00 81 1010.1
20260508070818 47 222 2.0 3.0 0.00 0.00 0.00 81 1010.1
20260508070316 47 245 3.0 3.0 0.00 0.00 0.00 80 1010.4
20260508065813 47 224 3.0 3.0 0.00 0.00 0.00 80 1010.2
20260508065311 47 232 3.0 3.0 0.00 0.00 0.00 79 1010.2
20260508064809 47 263 4.0 5.0 0.00 0.00 0.00 78 1010.4
20260508064306 48 240 4.0 5.0 0.00 0.00 0.00 76 1010.1
20260508063803 48 216 5.0 6.0 0.00 0.00 0.00 70 1010.0
20260508063302 48 218 4.0 6.0 0.00 0.00 0.00 70 1010.1
20260508062759 48 216 2.0 2.0 0.00 0.00 0.00 71 1010.1
20260508062256 47 256 4.0 5.0 0.00 0.00 0.00 71 1010.0
20260508061753 47 205 1.0 2.0 0.00 0.00 0.00 72 1010.2
20260508061250 47 213 1.0 2.0 0.00 0.00 0.00 72 1010.1
20260508060746 47 194 1.0 2.0 0.00 0.00 0.00 73 1010.3
20260508060244 46 197 1.0 1.0 0.00 0.00 0.00 74 1010.1
20260508055739 46 200 1.0 1.0 0.00 0.00 0.00 74 1010.2
20260508055237 46 188 1.0 1.0 0.00 0.00 0.00 74 1010.0
20260508054733 46 192 0.0 0.0 0.00 0.00 0.00 73 1010.4
20260508054231 46 196 0.0 0.0 0.00 0.00 0.00 74 1010.3
20260508053728 46 192 2.0 2.0 0.00 0.00 0.00 74 1010.4
20260508053225 46 193 1.0 1.0 0.00 0.00 0.00 73 1010.7
20260508052722 46 195 2.0 2.0 0.00 0.00 0.00 73 1010.5
20260508052219 46 197 0.0 0.0 0.00 0.00 0.00 73 1010.7
20260508051715 46 215 0.0 0.0 0.00 0.00 0.00 74 1010.5
20260508051211 46 227 0.0 0.0 0.00 0.00 0.00 73 1010.8
20260508050708 47 211 0.0 0.0 0.00 0.00 0.00 73 1010.8
20260508050206 47 211 0.0 0.0 0.00 0.00 0.00 73 1010.7
20260508045700 47 211 0.0 0.0 0.00 0.00 0.00 72 1010.9
20260508045159 47 210 0.0 0.0 0.00 0.00 0.00 73 1010.7
20260508044656 47 205 0.0 0.0 0.00 0.00 0.00 72 1010.8
20260508044152 47 213 2.0 2.0 0.00 0.00 0.00 72 1010.5
20260508043648 47 209 1.0 2.0 0.00 0.00 0.00 72 1010.7
20260508043146 47 227 0.0 0.0 0.00 0.00 0.00 71 1010.8
20260508042642 47 221 0.0 0.0 0.00 0.00 0.00 71 1010.7
20260508042140 48 248 2.0 2.0 0.00 0.00 0.00 70 1010.5
20260508041636 48 220 1.0 2.0 0.00 0.00 0.00 70 1010.4
20260508041133 48 236 1.0 1.0 0.00 0.00 0.00 70 1010.8
20260508040629 48 236 1.0 1.0 0.00 0.00 0.00 69 1010.8
20260508040127 48 242 2.0 2.0 0.00 0.00 0.00 68 1011.0
20260508035624 48 243 2.0 2.0 0.00 0.00 0.00 68 1010.9
20260508035121 48 280 2.0 2.0 0.00 0.00 0.00 68 1010.8
20260508034618 48 238 3.0 3.0 0.00 0.00 0.00 68 1010.9
20260508034115 48 228 1.0 2.0 0.00 0.00 0.00 68 1011.0
20260508033613 48 240 3.0 5.0 0.00 0.00 0.00 68 1010.9
20260508033111 48 217 4.0 5.0 0.00 0.00 0.00 69 1011.0
20260508032607 47 251 3.0 3.0 0.00 0.00 0.00 69 1010.9
20260508032105 47 216 4.0 6.0 0.00 0.00 0.00 69 1011.0
20260508031602 47 235 1.0 2.0 0.00 0.00 0.00 70 1010.8
20260508031057 47 235 1.0 2.0 0.00 0.00 0.00 71 1011.0
20260508030554 46 236 2.0 2.0 0.00 0.00 0.00 70 1010.9
20260508030052 46 233 1.0 1.0 0.00 0.00 0.00 72 1011.1
20260508025548 45 223 2.0 2.0 0.00 0.00 0.00 72 1011.1
20260508025045 44 284 2.0 2.0 0.00 0.00 0.00 78 1011.1
20260508024541 43 345 0.0 1.0 0.00 0.00 0.00 85 1011.1
20260508024038 42 333 0.0 0.0 0.00 0.00 0.00 88 1011.1
20260508023534 42 332 0.0 0.0 0.00 0.00 0.00 88 1011.0
20260508023032 43 335 0.0 0.0 0.00 0.00 0.00 87 1010.8
20260508022528 43 324 0.0 0.0 0.00 0.00 0.00 86 1010.5
20260508022025 43 324 0.0 0.0 0.00 0.00 0.00 85 1011.0
20260508021521 43 323 0.0 0.0 0.00 0.00 0.00 86 1010.8
20260508021017 44 323 0.0 0.0 0.00 0.00 0.00 87 1010.7
20260508020515 44 323 0.0 0.0 0.00 0.00 0.00 84 1010.7
20260508020012 44 323 0.0 0.0 0.00 0.00 0.00 83 1010.4
20260508015509 44 323 0.0 0.0 0.00 0.00 0.00 82 1010.3
20260508015006 44 323 0.0 0.0 0.00 0.00 0.00 80 1010.7
20260508014503 45 323 0.0 0.0 0.00 0.00 0.00 81 1010.7
20260508013959 45 323 0.0 0.0 0.00 0.00 0.00 79 1010.1
20260508013455 45 323 0.0 0.0 0.00 0.00 0.00 78 1010.7
20260508012952 45 323 0.0 0.0 0.00 0.00 0.00 76 1010.5
20260508012449 45 323 0.0 0.0 0.00 0.00 0.00 73 1010.4
20260508011947 46 323 0.0 0.0 0.00 0.00 0.00 72 1010.4
20260508011444 46 323 0.0 0.0 0.00 0.00 0.00 65 1010.3
20260508010942 46 323 0.0 0.0 0.00 0.00 0.00 64 1010.3
20260508010439 47 323 0.0 0.0 0.00 0.00 0.00 66 1010.1
20260508005936 47 322 0.0 0.0 0.00 0.00 0.00 63 1010.2
20260508005432 47 323 0.0 0.0 0.00 0.00 0.00 60 1010.2
20260508004929 48 323 0.0 0.0 0.00 0.00 0.00 59 1010.1
20260508004425 48 323 0.0 0.0 0.00 0.00 0.00 58 1010.1
20260508003922 48 323 0.0 0.0 0.00 0.00 0.00 58 1009.9
20260508003419 49 323 0.0 0.0 0.00 0.00 0.00 57 1009.9
20260508002916 49 323 0.0 0.0 0.00 0.00 0.00 56 1010.0
20260508002413 50 323 0.0 0.0 0.00 0.00 0.00 56 1010.2
20260508001908 51 323 1.0 1.0 0.00 0.00 0.00 52 1010.1
20260508001405 51 326 0.0 0.0 0.00 0.00 0.00 53 1009.8
20260508000902 51 325 1.0 1.0 0.00 0.00 0.00 51 1009.9
20260508000358 52 312 2.0 2.0 0.00 0.00 0.00 50 1010.0
20260507235854 52 296 3.0 5.0 0.00 0.00 0.00 50 1009.9
20260507235352 52 335 4.0 5.0 0.00 0.00 0.00 49 1009.8
20260507234849 52 332 3.0 3.0 0.00 0.00 0.00 49 1009.8
20260507234345 53 299 4.0 5.0 0.00 0.00 0.00 48 1009.8
20260507233842 53 6 2.0 2.0 0.00 0.00 0.00 50 1009.8
20260507233339 53 293 3.0 3.0 0.00 0.00 0.00 49 1009.9
20260507232838 53 313 3.0 5.0 0.00 0.00 0.00 48 1009.9
20260507232334 53 320 4.0 5.0 0.00 0.00 0.00 48 1009.7
20260507231832 53 328 6.0 8.0 0.00 0.00 0.00 47 1009.6
20260507231328 54 321 5.0 6.0 0.00 0.00 0.00 48 1009.7
20260507230824 54 334 2.0 2.0 0.00 0.00 0.00 48 1009.7
20260507230321 54 2 7.0 8.0 0.00 0.00 0.00 48 1009.6
20260507225821 54 282 0.0 1.0 0.00 0.00 0.00 48 1009.9
20260507225318 54 357 3.0 3.0 0.00 0.00 0.00 46 1009.9
20260507224814 54 298 4.0 5.0 0.00 0.00 0.00 46 1010.1
20260507224311 54 302 3.0 5.0 0.00 0.00 0.00 46 1009.9
20260507223807 54 318 6.0 8.0 0.00 0.00 0.00 46 1010.0
20260507223303 55 8 5.0 8.0 0.00 0.00 0.00 47 1009.6
20260507222800 54 8 5.0 8.0 0.00 0.00 0.00 46 1009.8
20260507222256 55 298 5.0 6.0 0.00 0.00 0.00 45 1009.6
20260507221754 55 277 4.0 6.0 0.00 0.00 0.00 47 1009.9
20260507221250 54 285 5.0 7.0 0.00 0.00 0.00 46 1009.9
20260507220746 54 316 6.0 7.0 0.00 0.00 0.00 47 1010.1
20260507220245 54 265 2.0 2.0 0.00 0.00 0.00 48 1009.8
20260507215740 53 322 5.0 6.0 0.00 0.00 0.00 49 1009.9
20260507215238 54 302 5.0 6.0 0.00 0.00 0.00 49 1009.7
20260507214735 55 312 8.0 8.0 0.00 0.00 0.00 49 1009.6
20260507214232 54 335 6.0 7.0 0.00 0.00 0.00 49 1009.7
20260507213727 55 310 4.0 5.0 0.00 0.00 0.00 51 1009.9
20260507213225 54 349 7.0 8.0 0.00 0.00 0.00 51 1009.6
20260507212721 53 22 3.0 6.0 0.00 0.00 0.00 52 1009.4
20260507212218 54 323 3.0 3.0 0.00 0.00 0.00 53 1009.8
20260507211714 54 349 5.0 8.0 0.00 0.00 0.00 52 1009.6
20260507211210 54 298 4.0 5.0 0.00 0.00 0.00 52 1009.6
20260507210708 55 297 4.0 6.0 0.00 0.00 0.00 52 1009.6
20260507210204 55 291 2.0 3.0 0.00 0.00 0.00 53 1009.5
20260507205701 53 349 6.0 7.0 0.00 0.00 0.00 56 1009.3
20260507205157 54 6 7.0 11.0 0.00 0.00 0.00 56 1009.3
20260507204654 53 34 8.0 10.0 0.00 0.00 0.00 56 1009.2
20260507204152 54 319 4.0 6.0 0.00 0.00 0.00 55 1009.1
20260507203649 53 286 3.0 5.0 0.00 0.00 0.00 51 1009.2
20260507203147 53 301 3.0 3.0 0.00 0.00 0.00 50 1009.4
20260507202642 53 308 5.0 6.0 0.00 0.00 0.00 49 1009.1
20260507202138 53 330 6.0 6.0 0.00 0.00 0.00 51 1009.1
20260507201633 54 285 7.0 9.0 0.00 0.00 0.00 49 1009.3
20260507201131 54 277 7.0 11.0 0.00 0.00 0.00 50 1009.3
20260507200627 54 255 3.0 3.0 0.00 0.00 0.00 47 1009.2
20260507200123 54 297 3.0 5.0 0.00 0.00 0.00 49 1009.2
20260507195620 54 231 6.0 7.0 0.00 0.00 0.00 47 1009.1
20260507195117 53 267 6.0 7.0 0.00 0.00 0.00 49 1009.3
20260507194614 53 290 7.0 8.0 0.00 0.00 0.00 52 1009.4
20260507194109 53 302 3.0 5.0 0.00 0.00 0.00 54 1009.3